H1 CPF 2 NER 2024 2 16 9 047 01 glonass107 H2 0706501 9107 32393 2024 2 16 0 0 0 2024 2 19 23 45 0 900 1 1 0 0 0 1 H9 10 0 60356 0.00000 0 -10626004.337 3039871.810 22967913.734 10 0 60356 900.00000 0 -11443854.793 333900.939 22773538.491 10 0 60356 1800.00000 0 -12436130.617 -2258175.334 22135934.426 10 0 60356 2700.00000 0 -13568868.024 -4676304.201 21067549.880 10 0 60356 3600.00000 0 -14798596.948 -6868174.607 19589225.207 10 0 60356 4500.00000 0 -16074147.890 -8791144.825 17729782.338 10 0 60356 5400.00000 0 -17338801.942 -10413761.877 15525457.983 10 0 60356 6300.00000 0 -18532693.206 -11716810.473 13019191.761 10 0 60356 7200.00000 0 -19595362.003 -12693849.034 10259783.473 10 0 60356 8100.00000 0 -20468350.936 -13351212.063 7300936.377 10 0 60356 9000.00000 0 -21097733.994 -13707480.651 4200205.593 10 0 60356 9900.00000 0 -21436471.831 -13792445.342 1017872.776 10 0 60356 10800.00000 0 -21446493.738 -13645606.984 -2184230.408 10 0 60356 11700.00000 0 -21100418.583 -13314280.547 -5343926.551 10 0 60356 12600.00000 0 -20382842.323 -12851383.469 -8399900.557 10 0 60356 13500.00000 0 -19291138.163 -12313003.076 -11292887.765 10 0 60356 14400.00000 0 -17835735.974 -11755846.544 -13966819.064 10 0 60356 15300.00000 0 -16039869.494 -11234681.406 -16369901.025 10 0 60356 16200.00000 0 -13938802.022 -10799874.512 -18455610.742 10 0 60356 17100.00000 0 -11578562.851 -10495132.776 -20183586.986 10 0 60356 18000.00000 0 -9014246.856 -10355540.287 -21520401.425 10 0 60356 18900.00000 0 -6307947.343 -10405973.609 -22440196.189 10 0 60356 19800.00000 0 -3526407.128 -10659961.295 -22925176.526 10 0 60356 20700.00000 0 -738484.125 -11119035.026 -22965949.953 10 0 60356 21600.00000 0 1987464.936 -11772599.508 -22561706.026 10 0 60356 22500.00000 0 4586175.797 -12598326.799 -21720233.504 10 0 60356 23400.00000 0 6997937.147 -13563059.179 -20457774.500 10 0 60356 24300.00000 0 9170819.755 -14624183.611 -18798717.908 10 0 60356 25200.00000 0 11062583.054 -15731421.346 -16775137.193 10 0 60356 26100.00000 0 12642180.980 -16828958.814 -14426180.397 10 0 60356 27000.00000 0 13890805.131 -17857831.481 -11797322.984 10 0 60356 27900.00000 0 14802422.241 -18758461.476 -8939496.745 10 0 60356 28800.00000 0 15383783.754 -19473242.815 -5908110.650 10 0 60356 29700.00000 0 15653907.182 -19949065.575 -2761981.799 10 0 60356 30600.00000 0 15643051.068 -20139672.356 437803.291 10 0 60356 31500.00000 0 15391226.691 -20007746.925 3629075.029 10 0 60356 32400.00000 0 14946309.346 -19526645.792 6749791.518 10 0 60356 33300.00000 0 14361829.168 -18681698.249 9739249.718 10 0 60356 34200.00000 0 13694535.218 -17471018.382 12539272.725 10 0 60356 35100.00000 0 13001836.398 -15905793.180 15095349.299 10 0 60356 36000.00000 0 12339228.107 -14010032.907 17357702.643 10 0 60356 36900.00000 0 11757814.241 -11819792.771 19282266.884 10 0 60356 37800.00000 0 11302030.132 -9381897.245 20831551.629 10 0 60356 38700.00000 0 11007663.412 -6752219.479 21975377.353 10 0 60356 39600.00000 0 10900257.113 -3993587.016 22691466.977 10 0 60356 40500.00000 0 10993962.966 -1173400.803 22965882.004 10 0 60356 41400.00000 0 11290893.701 1638933.560 22793294.714 10 0 60356 42300.00000 0 11781001.912 4374655.429 22177091.150 10 0 60356 43200.00000 0 12442490.666 6968269.454 21129303.002 10 0 60356 44100.00000 0 13242738.460 9360027.761 19670369.858 10 0 60356 45000.00000 0 14139699.305 11498170.948 17828736.573 10 0 60356 45900.00000 0 15083718.516 13340835.103 15640293.838 10 0 60356 46800.00000 0 16019687.179 14857546.149 13147673.033 10 0 60356 47700.00000 0 16889443.858 16030240.198 10399409.501 10 0 60356 48600.00000 0 17634321.615 16853768.685 7448990.936 10 0 60356 49500.00000 0 18197732.298 17335868.767 4353809.955 10 0 60356 50400.00000 0 18527678.522 17496602.079 1174041.881 10 0 60356 51300.00000 0 18579086.941 17367287.329 -2028529.784 10 0 60356 52200.00000 0 18315864.133 16988973.517 -5191716.772 10 0 60356 53100.00000 0 17712588.301 16410519.770 -8254134.428 10 0 60356 54000.00000 0 16755765.546 15686364.089 -11156391.298 10 0 60356 54900.00000 0 15444597.947 14874076.078 -13842236.839 10 0 60356 55800.00000 0 13791231.246 14031797.364 -16259645.213 10 0 60356 56700.00000 0 11820471.767 13215677.666 -18361814.747 10 0 60356 57600.00000 0 9568984.195 12477414.136 -20108064.578 10 0 60356 58500.00000 0 7084003.333 11861996.890 -21464612.114 10 0 60356 59400.00000 0 4421612.810 11405754.633 -22405217.442 10 0 60356 60300.00000 0 1644661.323 11134781.537 -22911683.302 10 0 60356 61200.00000 0 -1179598.270 11063810.601 -22974201.907 10 0 60356 62100.00000 0 -3982050.577 11195580.092 -22591542.568 10 0 60356 63000.00000 0 -6694336.276 11520719.359 -21771076.817 10 0 60356 63900.00000 0 -9251440.767 12018158.872 -20528640.457 10 0 60356 64800.00000 0 -11594147.149 12656047.708 -18888234.714 10 0 60356 65700.00000 0 -13671253.102 13393140.728 -16881571.457 10 0 60356 66600.00000 0 -15441460.691 14180598.131 -14547470.199 10 0 60356 67500.00000 0 -16874861.267 14964122.725 -11931117.346 10 0 60356 68400.00000 0 -17953954.094 15686345.924 -9083200.816 10 0 60356 69300.00000 0 -18674156.340 16289362.625 -6058935.763 10 0 60356 70200.00000 0 -19043783.134 16717308.432 -2916999.445 10 0 60356 71100.00000 0 -19083498.411 16918870.370 281604.602 10 0 60356 72000.00000 0 -18825259.496 16849624.513 3474731.159 10 0 60356 72900.00000 0 -18310799.770 16474100.841 6600303.485 10 0 60356 73800.00000 0 -17589713.447 15767486.705 9597525.079 10 0 60356 74700.00000 0 -16717223.464 14716895.416 12408068.719 10 0 60356 75600.00000 0 -15751727.128 13322144.618 14977218.895 10 0 60356 76500.00000 0 -14752223.685 11596009.851 17254944.580 10 0 60356 77400.00000 0 -13775733.093 9563940.888 19196880.683 10 0 60356 78300.00000 0 -12874815.655 7263251.201 20765198.494 10 0 60356 79200.00000 0 -12095297.814 4741813.185 21929347.709 10 0 60356 80100.00000 0 -11474300.611 2056312.738 22666655.292 10 0 60356 81000.00000 0 -11038654.334 -729864.671 22962769.394 10 0 60356 81900.00000 0 -10803766.366 -3549028.785 22811939.630 10 0 60356 82800.00000 0 -10772989.986 -6331760.650 22217128.352 10 0 60356 83700.00000 0 -10937520.530 -9009562.962 21189950.814 10 0 60356 84600.00000 0 -11276822.892 -11517474.482 19750445.544 10 0 60356 85500.00000 0 -11759571.844 -13796539.843 17926679.556 10 0 60357 0.00000 0 -12345064.796 -15796032.031 15754196.480 10 0 60357 900.00000 0 -12985046.957 -17475336.472 13275317.402 10 0 60357 1800.00000 0 -13625870.261 -18805416.216 10538311.336 10 0 60357 2700.00000 0 -14210895.107 -19769801.653 7596448.056 10 0 60357 3600.00000 0 -14683031.903 -20365061.942 4506955.070 10 0 60357 4500.00000 0 -14987314.605 -20600741.056 1329898.572 10 0 60357 5400.00000 0 -15073396.898 -20498762.696 -1872989.041 10 0 60357 6300.00000 0 -14897865.104 -20092330.836 -5039511.698 10 0 60357 7200.00000 0 -14426269.904 -19424373.795 -8108218.307 10 0 60357 8100.00000 0 -13634791.033 -18545598.854 -11019593.796 10 0 60357 9000.00000 0 -12511464.748 -17512240.403 -13717209.355 10 0 60357 9900.00000 0 -11056922.429 -16383597.165 -16148809.817 10 0 60357 10800.00000 0 -9284609.212 -15219462.416 -18267317.668 10 0 60357 11700.00000 0 -7220473.259 -14077555.042 -20031735.080 10 0 60357 12600.00000 0 -4902138.236 -13011058.818 -21407927.522 10 0 60357 13500.00000 0 -2377592.808 -12066372.300 -22369274.932 10 0 60357 14400.00000 0 296549.286 -11281162.627 -22897178.970 10 0 60357 15300.00000 0 3057147.506 -10682803.725 -22981417.474 10 0 60357 16200.00000 0 5836905.518 -10287263.305 -22620339.976 10 0 60357 17100.00000 0 8566918.243 -10098484.509 -21820900.791 10 0 60357 18000.00000 0 11179290.998 -10108287.666 -20598529.002 10 0 60357 18900.00000 0 13609723.724 -10296796.133 -18976837.373 10 0 60357 19800.00000 0 15799954.513 -10633368.627 -16987174.980 10 0 60357 20700.00000 0 17699962.056 -11077999.393 -14668031.202 10 0 60357 21600.00000 0 19269836.260 -11583128.057 -12064301.358 10 0 60357 22500.00000 0 20481239.574 -12095783.679 -9226427.041 10 0 60357 23400.00000 0 21318398.208 -12559973.324 -6209426.718 10 0 60357 24300.00000 0 21778581.696 -12919214.686 -3071834.589 10 0 60357 25200.00000 0 21872050.493 -13119105.904 125432.285 10 0 60357 26100.00000 0 21621473.468 -13109823.549 3320256.693 10 0 60357 27000.00000 0 21060839.510 -12848442.397 6450530.714 10 0 60357 27900.00000 0 20233908.878 -12300977.694 9455367.927 10 0 60357 28800.00000 0 19192269.531 -11444062.084 12276294.108 10 0 60357 29700.00000 0 17993080.543 -10266184.629 14858392.470 10 0 60357 30600.00000 0 16696598.087 -8768437.766 17151380.351 10 0 60357 31500.00000 0 15363588.777 -6964738.865 19110595.618 10 0 60357 32400.00000 0 14052739.943 -4881515.320 20697872.967 10 0 60357 33300.00000 0 12818176.478 -2556864.774 21882292.588 10 0 60357 34200.00000 0 11707189.291 -39224.379 22640786.314 10 0 60357 35100.00000 0 10758271.279 2614396.290 22958589.310 10 0 60357 36000.00000 0 9999543.571 5340545.643 22829528.471 10 0 60357 36900.00000 0 9447638.118 8071735.398 22256141.977 10 0 60357 37800.00000 0 9107083.280 10739020.868 21249627.767 10 0 60357 38700.00000 0 8970217.665 13274648.905 19829622.076 10 0 60357 39600.00000 0 9017635.043 15614663.285 18023812.514 10 0 60357 40500.00000 0 9219140.653 17701359.107 15867393.400 10 0 60357 41400.00000 0 9535177.496 19485484.178 13402374.216 10 0 60357 42300.00000 0 9918661.320 20928095.918 10676754.994 10 0 60357 43200.00000 0 10317145.685 22001996.929 7743585.112 10 0 60357 44100.00000 0 10675224.556 22692690.140 4659924.350 10 0 60357 45000.00000 0 10937069.875 22998814.739 1485727.058 10 0 60357 45900.00000 0 11048996.018 22932046.050 -1717328.218 10 0 60357 46800.00000 0 10961942.058 22516465.116 -4887040.306 10 0 60357 47700.00000 0 10633766.464 21787426.046 -7961894.280 10 0 60357 48600.00000 0 10031257.069 20789970.195 -10882253.858 10 0 60357 49500.00000 0 9131771.353 19576855.027 -13591514.163 10 0 60357 50400.00000 0 7924437.864 18206281.406 -16037192.660 10 0 60357 51300.00000 0 6410868.154 16739415.211 -18171937.712 10 0 60357 52200.00000 0 4605349.127 15237807.297 -19954436.037 10 0 60357 53100.00000 0 2534507.354 13760819.572 -21350202.482 10 0 60357 54000.00000 0 236458.713 12363164.233 -22332237.989 10 0 60357 54900.00000 0 -2240522.137 11092658.041 -22881544.105 10 0 60357 55800.00000 0 -4839758.259 9988284.387 -22987485.065 10 0 60357 56700.00000 0 -7498281.391 9078642.904 -22647991.124 10 0 60357 57600.00000 0 -10149211.326 8380850.317 -21869599.581 10 0 60357 58500.00000 0 -12724306.648 7899937.602 -20667332.635 10 0 60357 59400.00000 0 -15156582.637 7628768.083 -19064414.014 10 0 60357 60300.00000 0 -17382889.147 7548479.644 -17091829.051 10 0 60357 61200.00000 0 -19346342.538 7629432.541 -14787735.675 10 0 60357 62100.00000 0 -20998511.367 7832623.346 -12196736.504 10 0 60357 63000.00000 0 -22301265.302 8111505.936 -9369024.943 10 0 60357 63900.00000 0 -23228210.195 8414143.318 -6359420.730 10 0 60357 64800.00000 0 -23765649.167 8685599.788 -3226312.810 10 0 60357 65700.00000 0 -23913029.049 8870472.510 -30529.452 10 0 60357 66600.00000 0 -23682852.937 8915455.207 3165842.578 10 0 60357 67500.00000 0 -23100061.982 8771824.906 6300666.730 10 0 60357 68400.00000 0 -22200911.965 8397745.503 9312969.316 10 0 60357 69300.00000 0 -21031391.650 7760289.338 12144131.835 10 0 60357 70200.00000 0 -19645249.377 6837089.694 14739038.967 10 0 60357 71100.00000 0 -18101711.099 5617552.601 17047159.116 10 0 60357 72000.00000 0 -16462986.213 4103574.965 19023535.677 10 0 60357 72900.00000 0 -14791666.493 2309736.914 20629669.096 10 0 60357 73800.00000 0 -13148127.985 262958.562 21834272.113 10 0 60357 74700.00000 0 -11588045.422 -1998365.926 22613883.126 10 0 60357 75600.00000 0 -10160123.856 -4425721.931 22953325.621 10 0 60357 76500.00000 0 -8904142.818 -6962260.018 22846004.657 10 0 60357 77400.00000 0 -7849394.938 -9544939.674 22294034.708 10 0 60357 78300.00000 0 -7013584.163 -12106942.126 21308196.449 10 0 60357 79200.00000 0 -6402229.094 -14580251.826 19907723.477 10 0 60357 80100.00000 0 -6008595.581 -16898299.018 18119923.255 10 0 60357 81000.00000 0 -5814160.219 -18998553.229 15979639.898 10 0 60357 81900.00000 0 -5789583.908 -20824959.530 13528569.463 10 0 60357 82800.00000 0 -5896153.021 -22330115.997 10814441.451 10 0 60357 83700.00000 0 -6087625.940 -23477101.726 7890082.876 10 0 60357 84600.00000 0 -6312405.607 -24240879.547 4812383.625 10 0 60357 85500.00000 0 -6515944.976 -24609215.472 1641183.880 10 0 60358 0.00000 0 -6643282.579 -24583077.486 -1561893.836 10 0 60358 900.00000 0 -6641600.093 -24176498.065 -4734646.413 10 0 60358 1800.00000 0 -6462692.977 -23415907.716 -7815497.487 10 0 60358 2700.00000 0 -6065249.544 -22338968.744 -10744692.368 10 0 60358 3600.00000 0 -5416841.788 -20992959.373 -13465452.961 10 0 60358 4500.00000 0 -4495543.971 -19432777.015 -15925072.232 10 0 60358 5400.00000 0 -3291110.719 -17718644.976 -18075927.225 10 0 60358 6300.00000 0 -1805664.967 -15913618.841 -19876391.855 10 0 60358 7200.00000 0 -53866.601 -14080996.656 -21291632.763 10 0 60358 8100.00000 0 1937445.779 -12281740.507 -22294273.985 10 0 60358 9000.00000 0 4130125.848 -10572016.159 -22864918.689 10 0 60358 9900.00000 0 6476068.056 -9000952.235 -22992518.833 10 0 60358 10800.00000 0 8918978.890 -7608711.031 -22674586.332 10 0 60358 11700.00000 0 11396498.817 -6424950.097 -21917242.005 10 0 60358 12600.00000 0 13842588.387 -5467737.587 -20735101.325 10 0 60358 13500.00000 0 16190081.036 -4742965.695 -19150998.771 10 0 60358 14400.00000 0 18373298.042 -4244286.011 -17195555.306 10 0 60358 15300.00000 0 20330618.125 -3953569.149 -14906596.343 10 0 60358 16200.00000 0 22006895.687 -3841869.278 -12328430.267 10 0 60358 17100.00000 0 23355627.435 -3870853.155 -9511000.261 10 0 60358 18000.00000 0 24340777.055 -3994633.733 -6508924.813 10 0 60358 18900.00000 0 24938181.458 -4161931.262 -3380444.652 10 0 60358 19800.00000 0 25136479.164 -4318470.699 -186295.932 10 0 60358 20700.00000 0 24937521.209 -4409513.922 3011468.584 10 0 60358 21600.00000 0 24356246.536 -4382419.139 6150687.374 10 0 60358 22500.00000 0 23420026.335 -4189118.345 9170303.120 10 0 60358 23400.00000 0 22167504.308 -3788406.806 12011556.521 10 0 60358 24300.00000 0 20646981.180 -3147946.251 14619136.955 10 0 60358 25200.00000 0 18914411.188 -2245895.424 16942266.805 10 0 60358 26100.00000 0 17031094.794 -1072097.345 18935697.538 10 0 60358 27000.00000 0 15061164.724 371228.597 20560597.514 10 0 60358 27900.00000 0 13068971.190 2069320.618 21785313.777 10 0 60358 28800.00000 0 11116476.275 3995243.139 22585992.622 10 0 60358 29700.00000 0 9260767.002 6110775.917 22947046.745 10 0 60358 30600.00000 0 7551791.331 8367787.574 22861459.813 10 0 60358 31500.00000 0 6030411.817 10710036.851 22330922.566 10 0 60358 32400.00000 0 4726858.055 13075326.841 21365797.918 10 0 60358 33300.00000 0 3659641.991 15397922.520 19984915.873 10 0 60358 34200.00000 0 2834980.645 17611130.693 18215202.386 10 0 60358 35100.00000 0 2246749.136 19649934.587 16091149.622 10 0 60358 36000.00000 0 1876964.536 21453572.974 13654138.141 10 0 60358 36900.00000 0 1696778.534 22967955.935 10951624.572 10 0 60358 37800.00000 0 1667935.422 24147816.289 8036210.993 10 0 60358 38700.00000 0 1744632.209 24958506.895 4964614.647 10 0 60358 39600.00000 0 1875700.742 25377368.930 1796558.674 10 0 60358 40500.00000 0 2007018.249 25394614.517 -1406393.937 10 0 60358 41400.00000 0 2084043.170 25013687.551 -4582039.901 10 0 60358 42300.00000 0 2054368.181 24251088.632 -7668744.837 10 0 60358 43200.00000 0 1870181.847 23135672.578 -10606638.319 10 0 60358 44100.00000 0 1490534.526 21707448.976 -13338771.507 10 0 60358 45000.00000 0 883312.724 20015936.996 -15812215.083 10 0 60358 45900.00000 0 26838.638 18118143.911 -17979076.741 10 0 60358 46800.00000 0 -1088972.482 16076252.195 -19797419.311 10 0 60358 47700.00000 0 -2461945.901 13955111.659 -21232062.711 10 0 60358 48600.00000 0 -4077500.137 11819640.786 -22255255.333 10 0 60358 49500.00000 0 -5909025.670 9732244.652 -22847202.986 10 0 60358 50400.00000 0 -7918774.627 7750355.826 -22996446.114 10 0 60358 51300.00000 0 -10059225.566 5924199.220 -22700078.745 10 0 60358 52200.00000 0 -12274867.927 4294872.483 -21963805.315 10 0 60358 53100.00000 0 -14504333.420 2892820.478 -20801834.273 10 0 60358 54000.00000 0 -16682787.349 1736766.163 -19236610.122 10 0 60358 54900.00000 0 -18744481.869 833141.492 -17298388.326 10 0 60358 55800.00000 0 -20625366.214 176041.411 -15024660.286 10 0 60358 56700.00000 0 -22265646.141 -252297.557 -12459438.339 10 0 60358 57600.00000 0 -23612186.442 -480514.384 -9652413.386 10 0 60358 58500.00000 0 -24620656.327 -546677.562 -6658000.421 10 0 60358 59400.00000 0 -25257327.721 -496436.944 -3534289.564 10 0 60358 60300.00000 0 -25500450.564 -380851.310 -341922.357 10 0 60358 61200.00000 0 -25341146.558 -253983.595 2857085.050 10 0 60358 62100.00000 0 -24783782.862 -170365.818 6000548.862 10 0 60358 63000.00000 0 -23845808.973 -182441.697 9027330.885 10 0 60358 63900.00000 0 -22557062.718 -338096.127 11878533.807 10 0 60358 64800.00000 0 -20958573.738 -678377.350 14498654.453 10 0 60358 65700.00000 0 -19100914.158 -1235509.630 16836671.817 10 0 60358 66600.00000 0 -17042165.426 -2031282.052 18847047.870 10 0 60358 67500.00000 0 -14845586.527 -3075883.140 20490621.026 10 0 60358 68400.00000 0 -12577081.413 -4367232.072 21735374.401 10 0 60358 69300.00000 0 -10302571.910 -5890836.233 22557063.556 10 0 60358 70200.00000 0 -8085386.243 -7620182.417 22939691.331 10 0 60358 71100.00000 0 -5983772.458 -9517646.474 22875820.494 10 0 60358 72000.00000 0 -4048640.650 -11535884.098 22366718.146 10 0 60358 72900.00000 0 -2321628.041 -13619645.145 21422329.166 10 0 60358 73800.00000 0 -833567.165 -15707935.918 20061079.348 10 0 60358 74700.00000 0 396579.639 -17736439.042 18309512.204 10 0 60358 75600.00000 0 1362276.064 -19640089.637 16201766.731 10 0 60358 76500.00000 0 2069436.208 -21355699.863 13778906.508 10 0 60358 77400.00000 0 2535918.157 -22824521.708 11088113.566 10 0 60358 78300.00000 0 2790509.928 -23994640.559 8181763.115 10 0 60358 79200.00000 0 2871452.372 -24823099.184 5116397.652 10 0 60358 80100.00000 0 2824563.126 -25277663.170 1951621.041 10 0 60358 81000.00000 0 2701042.508 -25338154.096 -1251065.309 10 0 60358 81900.00000 0 2555055.488 -24997295.014 -4429460.932 10 0 60358 82800.00000 0 2441193.101 -24261033.461 -7521875.618 10 0 60358 83700.00000 0 2411921.444 -23148329.254 -10468325.733 10 0 60358 84600.00000 0 2515126.573 -21690416.795 -13211694.248 10 0 60358 85500.00000 0 2791859.197 -19929573.531 -15698832.117 10 0 60359 0.00000 0 3274374.294 -17917446.832 -17881579.984 10 0 60359 900.00000 0 3984548.434 -15713008.366 -19717692.339 10 0 60359 1800.00000 0 4932740.637 -13380224.004 -21171644.305 10 0 60359 2700.00000 0 6117145.480 -10985532.330 -22215310.492 10 0 60359 3600.00000 0 7523665.291 -8595238.509 -22828500.890 10 0 60359 4500.00000 0 9126307.544 -6272929.766 -22999345.619 10 0 60359 5400.00000 0 10888091.720 -4077018.650 -22724521.660 10 0 60359 6300.00000 0 12762428.972 -2058514.683 -22009317.567 10 0 60359 7200.00000 0 14694918.441 -259115.522 -20867534.928 10 0 60359 8100.00000 0 16625486.869 1290304.397 -19321228.110 10 0 60359 9000.00000 0 18490783.853 2570745.986 -17400286.564 10 0 60359 9900.00000 0 20226734.172 3575635.481 -15141866.792 10 0 60359 10800.00000 0 21771141.802 4310849.941 -12589683.784 10 0 60359 11700.00000 0 23066237.545 4794217.639 -9793174.431 10 0 60359 12600.00000 0 24061064.014 5054514.476 -6806548.068 10 0 60359 13500.00000 0 24713597.968 5129998.720 -3687741.642 10 0 60359 14400.00000 0 24992520.439 5066545.835 -497299.177 10 0 60359 15300.00000 0 24878559.461 4915462.250 2702802.930 10 0 60359 16200.00000 0 24365347.858 4731070.723 5850361.880 10 0 60359 17100.00000 0 23459758.774 4568169.960 8884161.904 10 0 60359 18000.00000 0 22181703.582 4479476.759 11745170.886 10 0 60359 18900.00000 0 20563399.530 4513159.962 14377696.158 10 0 60359 19800.00000 0 18648136.923 4710571.799 16730476.166 10 0 60359 20700.00000 0 16488596.907 5104273.953 18757685.965 10 0 60359 21600.00000 0 14144789.961 5716443.229 20419836.320 10 0 60359 22500.00000 0 11681701.219 6557725.586 21684548.409 10 0 60359 23400.00000 0 9166741.145 7626588.246 22527188.693 10 0 60359 24300.00000 0 6667108.165 8909198.432 22931351.411 10 0 60359 25200.00000 0 4247173.442 10379834.903 22889179.271 10 0 60359 26100.00000 0 1965996.947 12001815.863 22401516.103 10 0 60359 27000.00000 0 -124921.759 13728904.891 21477888.630 10 0 60359 27900.00000 0 -1983564.656 15507136.290 20136317.816 10 0 60359 28800.00000 0 -3578908.822 17276983.462 18402963.635 10 0 60359 29700.00000 0 -4891970.265 18975779.288 16311610.379 10 0 60359 30600.00000 0 -5916335.765 20540286.883 13903002.731 10 0 60359 31500.00000 0 -6658162.048 21909312.536 11224045.896 10 0 60359 32400.00000 0 -7135644.226 23026250.911 8326885.741 10 0 60359 33300.00000 0 -7377977.795 23841455.420 5267887.353 10 0 60359 34200.00000 0 -7423859.863 24314334.049 2106532.513 10 0 60359 35100.00000 0 -7319594.683 24415082.644 -1095741.839 10 0 60359 36000.00000 0 -7116885.128 24125983.042 -4276740.980 10 0 60359 36900.00000 0 -6870404.775 23442211.894 -7374721.763 10 0 60359 37800.00000 0 -6635254.243 22372126.748 -10329590.153 10 0 60359 38700.00000 0 -6464409.932 20937017.939 -13084063.574 10 0 60359 39600.00000 0 -6406273.251 19170337.219 -15584775.693 10 0 60359 40500.00000 0 -6502423.771 17116435.833 -17783302.672 10 0 60359 41400.00000 0 -6785670.849 14828864.893 -19637091.828 10 0 60359 42300.00000 0 -7278485.474 12368308.891 -21110275.612 10 0 60359 43200.00000 0 -7991878.031 9800237.965 -22174356.291 10 0 60359 44100.00000 0 -8924769.003 7192375.751 -22808749.203 10 0 60359 45000.00000 0 -10063879.180 4612086.968 -23001175.013 10 0 60359 45900.00000 0 -11384144.440 2123791.819 -22747894.185 10 0 60359 46800.00000 0 -12849638.599 -213487.020 -22053779.542 10 0 60359 47700.00000 0 -14414966.855 -2348344.520 -20932225.548 10 0 60359 48600.00000 0 -16027072.926 -4238889.858 -19404895.734 10 0 60359 49500.00000 0 -17627385.831 -5854241.900 -17501312.420 10 0 60359 50400.00000 0 -19154217.918 -7175562.440 -15258295.697 10 0 60359 51300.00000 0 -20545315.065 -8196584.929 -12719261.355 10 0 60359 52200.00000 0 -21740453.188 -8923617.176 -9933390.157 10 0 60359 53100.00000 0 -22683972.710 -9375018.221 -6954683.440 10 0 60359 54000.00000 0 -23327144.699 -9580171.513 -3840922.476 10 0 60359 54900.00000 0 -23630268.908 -9577997.689 -652551.140 10 0 60359 55800.00000 0 -23564414.666 -9415069.724 2548496.664 10 0 60359 56700.00000 0 -23112730.233 -9143410.230 5700001.964 10 0 60359 57600.00000 0 -22271264.167 -8818064.379 8740674.290 10 0 60359 58500.00000 0 -21049262.651 -8494551.674 11611349.617 10 0 60359 59400.00000 0 -19468928.835 -8226305.212 14256148.606 10 0 60359 60300.00000 0 -17564653.003 -8062207.757 16623571.834 10 0 60359 61200.00000 0 -15381744.796 -8044330.000 18667509.888 10 0 60359 62100.00000 0 -12974719.830 -8205967.835 20348147.998 10 0 60359 63000.00000 0 -10405211.881 -8570062.760 21632747.132 10 0 60359 63900.00000 0 -7739597.649 -9148073.277 22496285.935 10 0 60359 64800.00000 0 -5046433.165 -9939345.894 22921950.882 10 0 60359 65700.00000 0 -2393808.721 -10931013.149 22901465.011 10 0 60359 66600.00000 0 153267.399 -12098423.654 22435248.868 10 0 60359 67500.00000 0 2535347.524 -13406086.557 21532410.632 10 0 60359 68400.00000 0 4700782.564 -14809091.039 20210565.724 10 0 60359 69300.00000 0 6607626.586 -16254941.219 18495489.571 10 0 60359 70200.00000 0 8225129.380 -17685729.277 16420610.468 10 0 60359 71100.00000 0 9534755.878 -19040555.213 14026352.641 10 0 60359 72000.00000 0 10530691.206 -20258091.113 11359342.641 10 0 60359 72900.00000 0 11219811.947 -21279181.720 8471494.915 10 0 60359 73800.00000 0 11621126.742 -22049371.491 5418994.840 10 0 60359 74700.00000 0 11764711.731 -22521251.519 2261199.645 10 0 60359 75600.00000 0 11690187.618 -22656527.332 -940520.797 10 0 60359 76500.00000 0 11444804.408 -22427720.541 -4123980.160 10 0 60359 77400.00000 0 11081216.204 -21819432.862 -7227385.024 10 0 60359 78300.00000 0 10655041.270 -20829119.608 -10190533.578 10 0 60359 79200.00000 0 10222311.260 -19467340.489 -12955980.259 10 0 60359 80100.00000 0 9836917.766 -17757477.514 -15470143.896 10 0 60359 81000.00000 0 9548164.018 -15734932.014 -17684338.290 10 0 60359 81900.00000 0 9398524.745 -13445834.434 -19555706.080 10 0 60359 82800.00000 0 9421708.108 -10945320.519 -21048038.674 10 0 60359 83700.00000 0 9641100.744 -8295445.225 -22132467.539 10 0 60359 84600.00000 0 10068660.792 -5562820.294 -22788014.554 10 0 60359 85500.00000 0 10704305.103 -2816072.537 -23001991.764 99